South Heart, ND (58655)

3:42 PM MDT on March 30, 2017 (GMT -0600)
Southview | | Change Station

Elev 2434 ft 46.86 °N, 102.78 °W | Updated 33 seconds ago

Overcast
Overcast
61.0 °F
Feels Like 61.0 °F
N
9.0
Wind Variable Wind from SE

Today
High -- | Low -- °F
--% Chance of Precip.
Yesterday
High -- | Low -- °F
Precip. -- in
Pressure 29.72 in
Visibility 10.0 miles
Clouds Overcast 10000 ft
Dew Point 39 °F
Humidity 45%
Rainfall 0.00 in
Snow Depth Not available.
6:34 AM 7:18 PM
Waxing Crescent, 11% visible
METAR KDIK 302056Z AUTO 17017KT 10SM OVC100 15/01 A2970 RMK AO2 SLP062 T01500011 58004
Pressure 29.72 in
Visibility 10.0 miles
Clouds Overcast 10000 ft
Dew Point 39 °F
Humidity 45%
Rainfall 0.00 in
Snow Depth Not available.
6:34 AM 7:18 PM
Waxing Crescent, 11% visible
METAR KDIK 302056Z AUTO 17017KT 10SM OVC100 15/01 A2970 RMK AO2 SLP062 T01500011 58004

Get Severe Weather Alerts

Thanks for signing up!

Be on the lookout for a verification email in your inbox.

You'll start receiving the daily forecast at 8 AM.

×

10-Day Weather Forecast

Almanac

Astronomy

Mar. 30, 2017 Rise Set
Actual Time
Civil Twilight
Nautical Twilight
Astronomical Twilight
Moon
Length of Visible Light
Length of Day
Tomorrow will be .
, % of the Moon is Illuminated

Today's Extremes

State Highs State Lows

Community

WunderPhotos

Upload Photos

1,962,540 photos uploaded!

WunderBlog® & News

Nearby

Air Quality

  Air Quality AQ Index Pollutant
Not available.

Snow Depth

Station Depth Elevation

Earthquake Activity

City Distance Mag. Time & Date
Minimum magnitude displayed is 2.5.

Earthquake Activity

City Distance Mag. Time & Date
Minimum magnitude displayed is 2.5.

Coastal Water Temperatures

Place Temperature

Stations

Nearby Weather Stations

Station Location Temp. Windchill Dew Point Humidity Wind Precip. Elev Updated Type
                   

Watches & Warnings

There are currently no watches in effect.